����,���ϕ���(m/s),���ϕ���,�ő�u�ԕ���(m/s),�ő啗��������,�C��(��),���x(%),10���Ԉړ��ώZ�J��(mm),1���Ԉړ��ώZ�J��(mm),���J��(mm),�݌v�J��(mm),����(���ώZ)(MJ/m2),����(���ώZ)(min),���n�C��(hPa),�C�ʋC��(hPa)
2022-04-11T00:00:00+09:00,0.5,�쐼,1.2,��쐼,15.7,61.2,0,0,0,0,23.73,631,1007.4,1021.3
2022-04-11T00:01:00+09:00,0.5,��쐼,1.2,��쐼,15.9,61.7,0,0,0,0,0,0,1007.4,1021.3
2022-04-11T00:02:00+09:00,0.5,�쐼,1.2,��쐼,15.3,61.4,0,0,0,0,0,0,1007.4,1021.3
2022-04-11T00:03:00+09:00,0.5,�쐼,1.6,���k��,15.4,62.7,0,0,0,0,0,0,1007.4,1021.3
2022-04-11T00:04:00+09:00,0.6,�쐼,1.6,���k��,14.9,62.3,0,0,0,0,0,0,1007.3,1021.2
2022-04-11T00:05:00+09:00,0.5,���쐼,1.6,���k��,15.1,63.5,0,0,0,0,0,0,1007.3,1021.2
2022-04-11T00:06:00+09:00,0.5,���쐼,1.6,���k��,15.1,63.9,0,0,0,0,0,0,1007.3,1021.2
2022-04-11T00:07:00+09:00,0.4,���쐼,1.6,���k��,15.2,64.3,0,0,0,0,0,0,1007.2,1021.1
2022-04-11T00:08:00+09:00,0.3,��,1.6,���k��,15.1,63.7,0,0,0,0,0,0,1007.2,1021.1
2022-04-11T00:09:00+09:00,0.3,��,1.6,���k��,15,63.9,0,0,0,0,0,0,1007.2,1021.1
2022-04-11T00:10:00+09:00,0.3,��,1.6,���k��,15,64.2,0,0,0,0,0,0,1007.3,1021.2
2022-04-11T00:11:00+09:00,0.3,��,1.6,���k��,15.1,64.5,0,0,0,0,0,0,1007.3,1021.2
2022-04-11T00:12:00+09:00,0.3,��,1.6,���k��,14.9,64.2,0,0,0,0,0,0,1007.3,1021.2
2022-04-11T00:13:00+09:00,0.3,��,1.5,���k��,14.9,64.5,0,0,0,0,0,0,1007.3,1021.2
2022-04-11T00:14:00+09:00,0.2,�É�,0.8,��,14.7,65,0,0,0,0,0,0,1007.3,1021.2
2022-04-11T00:15:00+09:00,0.2,�É�,0.8,��,14.7,65.4,0,0,0,0,0,0,1007.3,1021.2
2022-04-11T00:16:00+09:00,0.2,�É�,0.8,��,14.8,65.8,0,0,0,0,0,0,1007.3,1021.2
2022-04-11T00:17:00+09:00,0.2,�É�,0.8,��,14.9,66.2,0,0,0,0,0,0,1007.3,1021.2
2022-04-11T00:18:00+09:00,0.2,�É�,0.8,��,15,66,0,0,0,0,0,0,1007.3,1021.2
2022-04-11T00:19:00+09:00,0.2,�É�,0.8,��,14.7,65.5,0,0,0,0,0,0,1007.3,1021.2
2022-04-11T00:20:00+09:00,0.2,�É�,0.8,��,14.8,66,0,0,0,0,0,0,1007.3,1021.2
2022-04-11T00:21:00+09:00,0.2,�É�,0.8,��,15.2,66.5,0,0,0,0,0,0,1007.3,1021.2
2022-04-11T00:22:00+09:00,0.3,�k��,1.6,��,15.3,65.6,0,0,0,0,0,0,1007.3,1021.2
2022-04-11T00:23:00+09:00,0.3,�k��,1.7,��,15.1,64.6,0,0,0,0,0,0,1007.4,1021.3
2022-04-11T00:24:00+09:00,0.5,�k��,2.2,��,14.7,64.1,0,0,0,0,0,0,1007.4,1021.3
2022-04-11T00:25:00+09:00,0.6,���k��,2.2,��,14.8,64.6,0,0,0,0,0,0,1007.3,1021.2
2022-04-11T00:26:00+09:00,0.7,���k��,2.2,��,14.9,64.9,0,0,0,0,0,0,1007.3,1021.2
2022-04-11T00:27:00+09:00,0.7,���k��,2.2,��,15,65,0,0,0,0,0,0,1007.3,1021.2
2022-04-11T00:28:00+09:00,0.7,���k��,2.2,��,15,64.6,0,0,0,0,0,0,1007.3,1021.2
2022-04-11T00:29:00+09:00,0.7,��,2.2,��,15.1,64.9,0,0,0,0,0,0,1007.4,1021.3
2022-04-11T00:30:00+09:00,0.6,���쐼,2.2,��,14.7,64.6,0,0,0,0,0,0,1007.3,1021.2
2022-04-11T00:31:00+09:00,0.7,���쐼,2.2,��,14.7,65.2,0,0,0,0,0,0,1007.3,1021.2
2022-04-11T00:32:00+09:00,0.6,�쐼,2.2,��,14.8,65.8,0,0,0,0,0,0,1007.3,1021.2
2022-04-11T00:33:00+09:00,0.6,�쓌,2.2,��,14.7,65.8,0,0,0,0,0,0,1007.3,1021.2
2022-04-11T00:34:00+09:00,0.5,��,2,��,14.6,66,0,0,0,0,0,0,1007.3,1021.2
2022-04-11T00:35:00+09:00,0.4,��,1.1,��,14.5,66.2,0,0,0,0,0,0,1007.3,1021.2
2022-04-11T00:36:00+09:00,0.4,��,1,���k��,14.4,66.7,0,0,0,0,0,0,1007.3,1021.2
2022-04-11T00:37:00+09:00,0.4,��,1,���k��,14.4,67.2,0,0,0,0,0,0,1007.3,1021.2
2022-04-11T00:38:00+09:00,0.4,���k��,1,���k��,14.3,67.3,0,0,0,0,0,0,1007.3,1021.3
2022-04-11T00:39:00+09:00,0.4,���k��,1,���k��,14.6,67.9,0,0,0,0,0,0,1007.3,1021.2
2022-04-11T00:40:00+09:00,0.4,�k��,1,���k��,14.7,67.9,0,0,0,0,0,0,1007.3,1021.2
2022-04-11T00:41:00+09:00,0.4,�k��,1,���k��,14.5,66.8,0,0,0,0,0,0,1007.3,1021.2
2022-04-11T00:42:00+09:00,0.4,�k��,1,���k��,14.3,66.5,0,0,0,0,0,0,1007.3,1021.3
2022-04-11T00:43:00+09:00,0.3,�k�k��,0.8,�k��,14.2,67,0,0,0,0,0,0,1007.3,1021.3
2022-04-11T00:44:00+09:00,0.2,�É�,0.8,�k��,14.1,67.2,0,0,0,0,0,0,1007.3,1021.3
2022-04-11T00:45:00+09:00,0.2,�É�,0.8,�k��,14.3,67.9,0,0,0,0,0,0,1007.3,1021.3
2022-04-11T00:46:00+09:00,0.2,�É�,0.7,�k�k��,14.3,67.9,0,0,0,0,0,0,1007.3,1021.3
2022-04-11T00:47:00+09:00,0.1,�É�,0.6,���쐼,14.5,68.1,0,0,0,0,0,0,1007.3,1021.2
2022-04-11T00:48:00+09:00,0.1,�É�,0.6,���쐼,14.4,67.5,0,0,0,0,0,0,1007.3,1021.2
2022-04-11T00:49:00+09:00,0.1,�É�,0.6,���쐼,14.5,67.7,0,0,0,0,0,0,1007.3,1021.2
2022-04-11T00:50:00+09:00,0.1,�É�,0.9,���쐼,14.6,67.7,0,0,0,0,0,0,1007.3,1021.2
2022-04-11T00:51:00+09:00,0.2,�É�,1.1,���쐼,14.6,67.3,0,0,0,0,0,0,1007.3,1021.2
2022-04-11T00:52:00+09:00,0.3,�k��,1.1,���쐼,14.6,67.2,0,0,0,0,0,0,1007.2,1021.1
2022-04-11T00:53:00+09:00,0.3,���k��,1.1,���쐼,14.6,67.1,0,0,0,0,0,0,1007.2,1021.1
2022-04-11T00:54:00+09:00,0.3,��,1.1,���쐼,14.6,66.8,0,0,0,0,0,0,1007.2,1021.1
2022-04-11T00:55:00+09:00,0.3,��,1.1,���쐼,14.8,66.8,0,0,0,0,0,0,1007.2,1021.1
2022-04-11T00:56:00+09:00,0.3,��,1.1,���쐼,15.2,66.9,0,0,0,0,0,0,1007.2,1021.1
2022-04-11T00:57:00+09:00,0.4,��,1.1,���쐼,14.9,65.7,0,0,0,0,0,0,1007.2,1021.1
2022-04-11T00:58:00+09:00,0.4,��,1.1,���쐼,14.6,65.2,0,0,0,0,0,0,1007.2,1021.1
2022-04-11T00:59:00+09:00,0.4,��,1.1,���쐼,14.6,65.9,0,0,0,0,0,0,1007.2,1021.1
2022-04-11T01:00:00+09:00,0.3,���k��,1.1,���쐼,14.5,66.1,0,0,0,0,0,0,1007.2,1021.1
2022-04-11T01:01:00+09:00,0.3,�k��,1,���k��,14.6,66.6,0,0,0,0,0,0,1007.1,1021
2022-04-11T01:02:00+09:00,0.3,�k�k��,0.9,�쐼,14.6,66.5,0,0,0,0,0,0,1007.2,1021.1
2022-04-11T01:03:00+09:00,0.3,�k�k��,0.9,�쐼,14.4,66.4,0,0,0,0,0,0,1007.2,1021.1
2022-04-11T01:04:00+09:00,0.2,�É�,0.9,�쐼,14.3,66.6,0,0,0,0,0,0,1007.2,1021.2
2022-04-11T01:05:00+09:00,0.2,�É�,0.9,�쐼,14.4,67.1,0,0,0,0,0,0,1007.2,1021.1
2022-04-11T01:06:00+09:00,0.2,�É�,0.8,�쐼,14.5,67.3,0,0,0,0,0,0,1007.2,1021.1
2022-04-11T01:07:00+09:00,0.2,�É�,0.7,�k��,14.5,67.4,0,0,0,0,0,0,1007.1,1021
2022-04-11T01:08:00+09:00,0.2,�É�,0.6,�k�k��,14.5,67.4,0,0,0,0,0,0,1007.2,1021.1
2022-04-11T01:09:00+09:00,0.2,�É�,0.7,��쐼,14.3,67.4,0,0,0,0,0,0,1007.2,1021.2
2022-04-11T01:10:00+09:00,0.2,�É�,0.9,��쐼,14.1,67.2,0,0,0,0,0,0,1007.1,1021.1
2022-04-11T01:11:00+09:00,0.2,�É�,0.9,��쐼,14,67.8,0,0,0,0,0,0,1007.1,1021.1
2022-04-11T01:12:00+09:00,0.2,�É�,0.9,��쐼,14.1,68.4,0,0,0,0,0,0,1007.1,1021.1
2022-04-11T01:13:00+09:00,0.2,�É�,0.9,��쐼,14.2,68.8,0,0,0,0,0,0,1007.1,1021.1
2022-04-11T01:14:00+09:00,0.2,�É�,0.9,��쐼,14,68.5,0,0,0,0,0,0,1007.1,1021.1
2022-04-11T01:15:00+09:00,0.2,�É�,0.9,��쐼,14.2,69.3,0,0,0,0,0,0,1007.1,1021.1
2022-04-11T01:16:00+09:00,0.2,�É�,0.9,��쐼,14,68.8,0,0,0,0,0,0,1007.1,1021.1
2022-04-11T01:17:00+09:00,0.3,�쐼,0.9,��쐼,14.2,69,0,0,0,0,0,0,1007.1,1021.1
2022-04-11T01:18:00+09:00,0.3,���쐼,0.9,��쐼,14,68.9,0,0,0,0,0,0,1007,1021
2022-04-11T01:19:00+09:00,0.3,���쐼,0.9,��쐼,14.1,69,0,0,0,0,0,0,1007,1021
2022-04-11T01:20:00+09:00,0.3,��,0.7,�쐼,14,68.9,0,0,0,0,0,0,1007,1021
2022-04-11T01:21:00+09:00,0.3,��,0.7,�쐼,14.1,69,0,0,0,0,0,0,1007,1021
2022-04-11T01:22:00+09:00,0.3,���k��,0.6,���k��,14.1,69.3,0,0,0,0,0,0,1007,1021
2022-04-11T01:23:00+09:00,0.3,���k��,0.6,���k��,14.2,69.1,0,0,0,0,0,0,1006.9,1020.9
2022-04-11T01:24:00+09:00,0.3,�k��,0.6,���k��,14.3,68.9,0,0,0,0,0,0,1006.9,1020.8
2022-04-11T01:25:00+09:00,0.3,�k��,0.7,���k��,14.1,68.5,0,0,0,0,0,0,1006.9,1020.9
2022-04-11T01:26:00+09:00,0.3,�k�k��,0.7,���k��,14.2,68.8,0,0,0,0,0,0,1006.9,1020.9
2022-04-11T01:27:00+09:00,0.4,�k,0.8,���k��,14,68.6,0,0,0,0,0,0,1006.9,1020.9
2022-04-11T01:28:00+09:00,0.3,�k�k��,0.8,���k��,14,68.9,0,0,0,0,0,0,1006.9,1020.9
2022-04-11T01:29:00+09:00,0.4,�k��,1,��,13.8,69.1,0,0,0,0,0,0,1006.9,1020.9
2022-04-11T01:30:00+09:00,0.5,�k��,1.3,���k��,14,70,0,0,0,0,0,0,1006.9,1020.9
2022-04-11T01:31:00+09:00,0.5,���k��,1.3,���k��,13.8,69.9,0,0,0,0,0,0,1006.9,1020.9
2022-04-11T01:32:00+09:00,0.5,���k��,1.3,���k��,13.7,70,0,0,0,0,0,0,1006.9,1020.9
2022-04-11T01:33:00+09:00,0.6,���k��,1.3,���k��,13.7,70.6,0,0,0,0,0,0,1006.9,1020.9
2022-04-11T01:34:00+09:00,0.6,��,1.6,��,13.7,71.1,0,0,0,0,0,0,1006.9,1020.9
2022-04-11T01:35:00+09:00,0.6,��,1.6,��,13.7,71.1,0,0,0,0,0,0,1006.9,1020.9
2022-04-11T01:36:00+09:00,0.6,��,1.6,��,13.8,71.5,0,0,0,0,0,0,1006.9,1020.9
2022-04-11T01:37:00+09:00,0.6,���쓌,1.6,��,13.9,71.6,0,0,0,0,0,0,1006.9,1020.9
2022-04-11T01:38:00+09:00,0.7,���쓌,1.9,��,13.9,71.4,0,0,0,0,0,0,1006.9,1020.9
2022-04-11T01:39:00+09:00,0.7,�쓌,1.9,��,13.8,71.1,0,0,0,0,0,0,1006.9,1020.9
2022-04-11T01:40:00+09:00,0.7,��쓌,1.9,��,13.7,71,0,0,0,0,0,0,1006.9,1020.9
2022-04-11T01:41:00+09:00,0.7,��,1.9,��,13.6,71.3,0,0,0,0,0,0,1006.8,1020.8
2022-04-11T01:42:00+09:00,0.7,��,1.9,��,13.6,71.7,0,0,0,0,0,0,1006.8,1020.8
2022-04-11T01:43:00+09:00,0.8,��쐼,1.9,��,13.6,71.8,0,0,0,0,0,0,1006.8,1020.8
2022-04-11T01:44:00+09:00,0.8,��쐼,1.9,��,13.7,72.1,0,0,0,0,0,0,1006.8,1020.8
2022-04-11T01:45:00+09:00,0.8,��쐼,1.9,��,13.6,72.1,0,0,0,0,0,0,1006.8,1020.8
2022-04-11T01:46:00+09:00,0.9,��쐼,1.9,��,13.6,72.3,0,0,0,0,0,0,1006.8,1020.8
2022-04-11T01:47:00+09:00,1,��쐼,2,��,13.6,72.2,0,0,0,0,0,0,1006.8,1020.8
2022-04-11T01:48:00+09:00,1,��쐼,2,��,13.7,72.7,0,0,0,0,0,0,1006.7,1020.7
2022-04-11T01:49:00+09:00,1.1,��쐼,2.1,��쐼,13.7,72.7,0,0,0,0,0,0,1006.8,1020.8
2022-04-11T01:50:00+09:00,1.1,��쐼,2.1,��쐼,13.7,72.4,0,0,0,0,0,0,1006.8,1020.8
2022-04-11T01:51:00+09:00,1.2,��쐼,2.1,��쐼,13.7,72.5,0,0,0,0,0,0,1006.8,1020.8
2022-04-11T01:52:00+09:00,1.2,��쐼,2.1,��쐼,13.8,72.7,0,0,0,0,0,0,1006.7,1020.7
2022-04-11T01:53:00+09:00,1.2,��쐼,2.1,��쐼,13.7,71.9,0,0,0,0,0,0,1006.7,1020.7
2022-04-11T01:54:00+09:00,1.3,��쐼,2.2,��쐼,13.6,71.5,0,0,0,0,0,0,1006.7,1020.7
2022-04-11T01:55:00+09:00,1.2,��쐼,2.2,��쐼,13.5,72,0,0,0,0,0,0,1006.7,1020.7
2022-04-11T01:56:00+09:00,1.2,��쐼,2.2,��쐼,13.5,72.1,0,0,0,0,0,0,1006.7,1020.7
2022-04-11T01:57:00+09:00,1.1,��쐼,2.2,��쐼,13.5,72.9,0,0,0,0,0,0,1006.7,1020.7
2022-04-11T01:58:00+09:00,1,��쐼,2.2,��쐼,13.6,73,0,0,0,0,0,0,1006.7,1020.7
2022-04-11T01:59:00+09:00,1,��쐼,2.2,��쐼,13.5,73.1,0,0,0,0,0,0,1006.7,1020.7
2022-04-11T02:00:00+09:00,1,��쐼,2.2,��쐼,13.6,73.2,0,0,0,0,0,0,1006.7,1020.7
2022-04-11T02:01:00+09:00,1,��쐼,2.2,��쐼,13.5,73.2,0,0,0,0,0,0,1006.6,1020.6
2022-04-11T02:02:00+09:00,1,��쐼,2.2,��쐼,13.6,73.5,0,0,0,0,0,0,1006.7,1020.7
2022-04-11T02:03:00+09:00,1,��쐼,2.2,��쐼,13.9,73.8,0,0,0,0,0,0,1006.7,1020.7
2022-04-11T02:04:00+09:00,1,��쐼,2.2,��,13.6,72.5,0,0,0,0,0,0,1006.7,1020.7
2022-04-11T02:05:00+09:00,1,��쐼,2.2,��,13.7,72.8,0,0,0,0,0,0,1006.7,1020.7
2022-04-11T02:06:00+09:00,1,��쐼,2.2,��,13.8,73,0,0,0,0,0,0,1006.7,1020.7
2022-04-11T02:07:00+09:00,1,��쐼,2.2,��,13.6,72.4,0,0,0,0,0,0,1006.7,1020.7
2022-04-11T02:08:00+09:00,1,��쐼,2.2,��,13.5,72,0,0,0,0,0,0,1006.7,1020.7
2022-04-11T02:09:00+09:00,1,��쐼,2.2,��,13.6,72.9,0,0,0,0,0,0,1006.7,1020.7
2022-04-11T02:10:00+09:00,0.9,��쐼,2.2,��,13.4,72.1,0,0,0,0,0,0,1006.6,1020.6
2022-04-11T02:11:00+09:00,0.9,��쐼,2.2,��,13.5,73.3,0,0,0,0,0,0,1006.6,1020.6
2022-04-11T02:12:00+09:00,0.8,��쐼,2.2,��,13.5,73.5,0,0,0,0,0,0,1006.6,1020.6
2022-04-11T02:13:00+09:00,0.8,��쐼,2.2,��,13.4,73.2,0,0,0,0,0,0,1006.7,1020.7
2022-04-11T02:14:00+09:00,0.7,��쐼,1.9,��쐼,13.5,73.6,0,0,0,0,0,0,1006.7,1020.7
2022-04-11T02:15:00+09:00,0.6,�쐼,1.7,��쐼,13.6,74.3,0,0,0,0,0,0,1006.7,1020.7
2022-04-11T02:16:00+09:00,0.6,�쐼,1.7,��쐼,13.3,73.2,0,0,0,0,0,0,1006.7,1020.7
2022-04-11T02:17:00+09:00,0.6,�쐼,1.7,��쐼,13.2,73,0,0,0,0,0,0,1006.7,1020.7
2022-04-11T02:18:00+09:00,0.6,�쐼,1.7,��쐼,13.3,73.8,0,0,0,0,0,0,1006.7,1020.7
2022-04-11T02:19:00+09:00,0.6,�쐼,1.7,��쐼,13.2,73.9,0,0,0,0,0,0,1006.7,1020.7
2022-04-11T02:20:00+09:00,0.6,�쐼,1.7,��쐼,13.4,74.6,0,0,0,0,0,0,1006.7,1020.7
2022-04-11T02:21:00+09:00,0.6,�쐼,1.8,��,13.5,75.1,0,0,0,0,0,0,1006.7,1020.7
2022-04-11T02:22:00+09:00,0.7,�쐼,1.8,��,13.6,74.9,0,0,0,0,0,0,1006.7,1020.7
2022-04-11T02:23:00+09:00,0.7,�쐼,1.8,��,13.7,74.7,0,0,0,0,0,0,1006.7,1020.7
2022-04-11T02:24:00+09:00,0.7,�쐼,2,��,13.6,74.2,0,0,0,0,0,0,1006.7,1020.7
2022-04-11T02:25:00+09:00,0.8,��쐼,2,��,13.6,74.1,0,0,0,0,0,0,1006.7,1020.7
2022-04-11T02:26:00+09:00,0.9,��쐼,2,��,13.7,74.6,0,0,0,0,0,0,1006.7,1020.7
2022-04-11T02:27:00+09:00,0.9,��쐼,2,��,13.8,74.6,0,0,0,0,0,0,1006.6,1020.6
2022-04-11T02:28:00+09:00,0.9,��쐼,2,��,13.7,74.2,0,0,0,0,0,0,1006.6,1020.6
2022-04-11T02:29:00+09:00,0.9,��쐼,2,��,13.6,74,0,0,0,0,0,0,1006.7,1020.7
2022-04-11T02:30:00+09:00,0.9,��쐼,2.2,�쐼,13.2,72.9,0,0,0,0,0,0,1006.7,1020.7
2022-04-11T02:31:00+09:00,0.9,��쐼,2.2,�쐼,13.3,74.6,0,0,0,0,0,0,1006.7,1020.7
2022-04-11T02:32:00+09:00,0.9,��쐼,2.2,�쐼,13.3,75.2,0,0,0,0,0,0,1006.6,1020.6
2022-04-11T02:33:00+09:00,0.9,��쐼,2.2,�쐼,13.4,75.7,0,0,0,0,0,0,1006.7,1020.7
2022-04-11T02:34:00+09:00,1,��쐼,2.2,�쐼,13.5,76.3,0,0,0,0,0,0,1006.7,1020.7
2022-04-11T02:35:00+09:00,1.1,��쐼,3.1,��,13.6,76.6,0,0,0,0,0,0,1006.7,1020.7
2022-04-11T02:36:00+09:00,1.1,��쐼,3.1,��,13.6,76.7,0,0,0,0,0,0,1006.7,1020.7
2022-04-11T02:37:00+09:00,1.1,��쐼,3.1,��,13.6,76.3,0,0,0,0,0,0,1006.7,1020.7
2022-04-11T02:38:00+09:00,1,��쐼,3.1,��,13.6,75.3,0,0,0,0,0,0,1006.7,1020.7
2022-04-11T02:39:00+09:00,1.1,��쐼,3.1,��,13.5,75.3,0,0,0,0,0,0,1006.6,1020.6
2022-04-11T02:40:00+09:00,1,��쐼,3.1,��,13.4,75.4,0,0,0,0,0,0,1006.7,1020.7
2022-04-11T02:41:00+09:00,1,��쐼,3.1,��,13.3,75.9,0,0,0,0,0,0,1006.7,1020.7
2022-04-11T02:42:00+09:00,1,��쐼,3.1,��,13.2,75.8,0,0,0,0,0,0,1006.7,1020.7
2022-04-11T02:43:00+09:00,0.9,��쐼,3.1,��,12.8,74.6,0,0,0,0,0,0,1006.6,1020.6
2022-04-11T02:44:00+09:00,0.8,��쐼,3.1,��,12.8,75.2,0,0,0,0,0,0,1006.7,1020.7
2022-04-11T02:45:00+09:00,0.6,�쐼,2.7,�쐼,12.8,76.3,0,0,0,0,0,0,1006.6,1020.6
2022-04-11T02:46:00+09:00,0.6,�쐼,1.6,��,12.7,76.1,0,0,0,0,0,0,1006.7,1020.7
2022-04-11T02:47:00+09:00,0.6,���쐼,1.6,��,12.7,76.3,0,0,0,0,0,0,1006.7,1020.7
2022-04-11T02:48:00+09:00,0.5,���쐼,1.6,��,12.8,77,0,0,0,0,0,0,1006.7,1020.7
2022-04-11T02:49:00+09:00,0.5,��,1.6,��,13.1,77.9,0,0,0,0,0,0,1006.7,1020.7
2022-04-11T02:50:00+09:00,0.5,��,1.6,��,13.1,77.8,0,0,0,0,0,0,1006.7,1020.7
2022-04-11T02:51:00+09:00,0.5,��,0.9,���쐼,12.9,76.6,0,0,0,0,0,0,1006.7,1020.7
2022-04-11T02:52:00+09:00,0.5,��,1.8,��,12.6,76.2,0,0,0,0,0,0,1006.7,1020.7
2022-04-11T02:53:00+09:00,0.7,��,2.1,��,12.4,76.2,0,0,0,0,0,0,1006.7,1020.7
2022-04-11T02:54:00+09:00,0.8,��,2.1,��,12.4,77.5,0,0,0,0,0,0,1006.8,1020.8
2022-04-11T02:55:00+09:00,0.9,��,2.1,��,12.5,78.7,0,0,0,0,0,0,1006.7,1020.7
2022-04-11T02:56:00+09:00,0.9,��,2.1,��,12.6,79.2,0,0,0,0,0,0,1006.7,1020.7
2022-04-11T02:57:00+09:00,1,��,2.1,��,12.6,79,0,0,0,0,0,0,1006.7,1020.7
2022-04-11T02:58:00+09:00,1.1,��,2.1,��,12.6,78.8,0,0,0,0,0,0,1006.8,1020.8
2022-04-11T02:59:00+09:00,1.1,��,2.1,��,12.6,78.7,0,0,0,0,0,0,1006.8,1020.8
2022-04-11T03:00:00+09:00,1.2,��,2.1,��,12.7,78.8,0,0,0,0,0,0,1006.7,1020.7
2022-04-11T03:01:00+09:00,1.2,��,2.1,��,12.5,78.3,0,0,0,0,0,0,1006.7,1020.7
2022-04-11T03:02:00+09:00,1.2,��,2.1,��,12.6,79,0,0,0,0,0,0,1006.7,1020.7
2022-04-11T03:03:00+09:00,1.1,��,2.1,��,12.5,78.8,0,0,0,0,0,0,1006.7,1020.7
2022-04-11T03:04:00+09:00,1.2,��,2.5,��,12.3,78.3,0,0,0,0,0,0,1006.7,1020.7
2022-04-11T03:05:00+09:00,1.2,��,2.6,��,12.2,78.2,0,0,0,0,0,0,1006.7,1020.7
2022-04-11T03:06:00+09:00,1.2,��,2.6,��,12.1,78.5,0,0,0,0,0,0,1006.7,1020.8
2022-04-11T03:07:00+09:00,1.3,��,2.6,��,12.2,79.2,0,0,0,0,0,0,1006.7,1020.7
2022-04-11T03:08:00+09:00,1.4,��,2.6,��,12.4,79.7,0,0,0,0,0,0,1006.7,1020.7
2022-04-11T03:09:00+09:00,1.4,��,2.6,��,12.4,79.6,0,0,0,0,0,0,1006.7,1020.7
2022-04-11T03:10:00+09:00,1.5,��,2.6,��,12.4,78.7,0,0,0,0,0,0,1006.7,1020.7
2022-04-11T03:11:00+09:00,1.6,��,2.6,��,12.4,78.8,0,0,0,0,0,0,1006.7,1020.7
2022-04-11T03:12:00+09:00,1.6,��,2.6,��,12.3,78.2,0,0,0,0,0,0,1006.7,1020.7
2022-04-11T03:13:00+09:00,1.7,��,2.6,��,12.2,78.5,0,0,0,0,0,0,1006.7,1020.7
2022-04-11T03:14:00+09:00,1.6,��,2.6,��,12.3,79.2,0,0,0,0,0,0,1006.7,1020.7
2022-04-11T03:15:00+09:00,1.5,��,2.5,���k��,12.3,79.5,0,0,0,0,0,0,1006.7,1020.7
2022-04-11T03:16:00+09:00,1.5,��,2.5,���k��,12.4,79.4,0,0,0,0,0,0,1006.7,1020.7
2022-04-11T03:17:00+09:00,1.4,��,2.5,���k��,12.2,78.3,0,0,0,0,0,0,1006.8,1020.9
2022-04-11T03:18:00+09:00,1.5,��,2.9,��,12.3,79,0,0,0,0,0,0,1006.8,1020.8
2022-04-11T03:19:00+09:00,1.5,��,2.9,��,12.3,79.2,0,0,0,0,0,0,1006.8,1020.8
2022-04-11T03:20:00+09:00,1.6,��,2.9,��,12.1,78.5,0,0,0,0,0,0,1006.8,1020.9
2022-04-11T03:21:00+09:00,1.5,��,2.9,��,12.3,79.1,0,0,0,0,0,0,1006.7,1020.7
2022-04-11T03:22:00+09:00,1.4,��,2.9,��,12.6,80.7,0,0,0,0,0,0,1006.8,1020.8
2022-04-11T03:23:00+09:00,1.3,��,2.9,��,12.8,80.9,0,0,0,0,0,0,1006.7,1020.7
2022-04-11T03:24:00+09:00,1.4,��,2.9,��,12.7,79.5,0,0,0,0,0,0,1006.7,1020.7
2022-04-11T03:25:00+09:00,1.4,��,2.9,��,12.5,78.1,0,0,0,0,0,0,1006.7,1020.7
2022-04-11T03:26:00+09:00,1.4,��,2.9,��,12.2,77.5,0,0,0,0,0,0,1006.7,1020.7
2022-04-11T03:27:00+09:00,1.5,��,2.9,��,12.2,78.2,0,0,0,0,0,0,1006.7,1020.7
2022-04-11T03:28:00+09:00,1.4,��,2.8,��,12.4,79.1,0,0,0,0,0,0,1006.7,1020.7
2022-04-11T03:29:00+09:00,1.3,��,2.5,��,12.4,79.6,0,0,0,0,0,0,1006.8,1020.8
2022-04-11T03:30:00+09:00,1.2,��,2.5,��,12.4,78.7,0,0,0,0,0,0,1006.8,1020.8
2022-04-11T03:31:00+09:00,1.2,��,2.5,��,12.4,79,0,0,0,0,0,0,1006.8,1020.8
2022-04-11T03:32:00+09:00,1.3,��,2.5,��,12.6,79,0,0,0,0,0,0,1006.7,1020.7
2022-04-11T03:33:00+09:00,1.3,��,2.5,��,12.4,79,0,0,0,0,0,0,1006.8,1020.8
2022-04-11T03:34:00+09:00,1.2,��,2.2,���k��,12.6,79.4,0,0,0,0,0,0,1006.8,1020.8
2022-04-11T03:35:00+09:00,1.1,��,2.2,���k��,12.6,79.2,0,0,0,0,0,0,1006.8,1020.8
2022-04-11T03:36:00+09:00,1.1,��,2.2,���k��,12.6,78.8,0,0,0,0,0,0,1006.7,1020.7
2022-04-11T03:37:00+09:00,1,��,2.2,���k��,13,79.8,0,0,0,0,0,0,1006.7,1020.7
2022-04-11T03:38:00+09:00,0.9,��,1.5,��,13.3,81,0,0,0,0,0,0,1006.7,1020.7
2022-04-11T03:39:00+09:00,0.8,��,1.5,��,13.6,82.2,0,0,0,0,0,0,1006.7,1020.7
2022-04-11T03:40:00+09:00,0.8,��,1.5,��,13.2,81.4,0,0,0,0,0,0,1006.8,1020.8
2022-04-11T03:41:00+09:00,0.7,��,1.5,��,13.3,79.2,0,0,0,0,0,0,1006.7,1020.7
2022-04-11T03:42:00+09:00,0.8,��,1.8,��,12.8,78.6,0,0,0,0,0,0,1006.8,1020.8
2022-04-11T03:43:00+09:00,0.8,��,2.2,��,12.5,77.2,0,0,0,0,0,0,1006.7,1020.7
2022-04-11T03:44:00+09:00,0.9,��,2.2,��,12.7,79.1,0,0,0,0,0,0,1006.7,1020.7
2022-04-11T03:45:00+09:00,0.9,��,2.2,��,13,81.2,0,0,0,0,0,0,1006.7,1020.7
2022-04-11T03:46:00+09:00,0.8,��,2.2,��,13.3,82.2,0,0,0,0,0,0,1006.7,1020.7
2022-04-11T03:47:00+09:00,0.8,��,2.2,��,13.5,83.4,0,0,0,0,0,0,1006.7,1020.7
2022-04-11T03:48:00+09:00,0.8,���쐼,2.2,��,13.5,83.8,0,0,0,0,0,0,1006.7,1020.7
2022-04-11T03:49:00+09:00,0.8,���쐼,2.2,��,13.5,82.9,0,0,0,0,0,0,1006.7,1020.7
2022-04-11T03:50:00+09:00,0.8,���쐼,2.2,��,13.3,82.1,0,0,0,0,0,0,1006.7,1020.7
2022-04-11T03:51:00+09:00,0.8,���쐼,2.2,��,13.6,82.8,0,0,0,0,0,0,1006.7,1020.7
2022-04-11T03:52:00+09:00,0.7,���쐼,2.2,��,13.7,84.3,0,0,0,0,0,0,1006.7,1020.7
2022-04-11T03:53:00+09:00,0.5,�쐼,1.7,��,13.7,83,0,0,0,0,0,0,1006.7,1020.7
2022-04-11T03:54:00+09:00,0.4,�쐼,1.5,��,13.9,83.5,0,0,0,0,0,0,1006.7,1020.7
2022-04-11T03:55:00+09:00,0.3,�쐼,0.8,��,13.8,82.8,0,0,0,0,0,0,1006.7,1020.7
2022-04-11T03:56:00+09:00,0.3,�쐼,0.9,��,13,78.9,0,0,0,0,0,0,1006.7,1020.7
2022-04-11T03:57:00+09:00,0.3,�쐼,0.9,��,13.7,81.3,0,0,0,0,0,0,1006.7,1020.7
2022-04-11T03:58:00+09:00,0.3,�쐼,0.9,��,13.8,84.2,0,0,0,0,0,0,1006.7,1020.7
2022-04-11T03:59:00+09:00,0.3,�쐼,0.9,��,13.9,83.9,0,0,0,0,0,0,1006.7,1020.7
2022-04-11T04:00:00+09:00,0.3,�쐼,0.9,��,13.9,84.1,0,0,0,0,0,0,1006.7,1020.7
2022-04-11T04:01:00+09:00,0.2,�É�,0.9,��,14,84.1,0,0,0,0,0,0,1006.7,1020.7
2022-04-11T04:02:00+09:00,0.2,�É�,0.9,��,14,83.8,0,0,0,0,0,0,1006.7,1020.7
2022-04-11T04:03:00+09:00,0.3,��,0.9,��,13.6,82.5,0,0,0,0,0,0,1006.6,1020.6
2022-04-11T04:04:00+09:00,0.3,��쐼,0.9,��,13.4,81.3,0,0,0,0,0,0,1006.6,1020.6
2022-04-11T04:05:00+09:00,0.3,��,0.9,��,13.4,83,0,0,0,0,0,0,1006.6,1020.6
2022-04-11T04:06:00+09:00,0.2,�É�,0.9,��,13.7,84.8,0,0,0,0,0,0,1006.6,1020.6
2022-04-11T04:07:00+09:00,0.2,�É�,0.9,��,14,86.2,0,0,0,0,0,0,1006.7,1020.7
2022-04-11T04:08:00+09:00,0.2,�É�,0.9,��,14.2,86.7,0,0,0,0,0,0,1006.6,1020.5
2022-04-11T04:09:00+09:00,0.2,�É�,0.9,��,14.1,85.1,0,0,0,0,0,0,1006.6,1020.6
2022-04-11T04:10:00+09:00,0.2,�É�,1,��쓌,14.3,85.7,0,0,0,0,0,0,1006.6,1020.5
2022-04-11T04:11:00+09:00,0.2,�É�,1,��쓌,13.1,81.2,0,0,0,0,0,0,1006.6,1020.6
2022-04-11T04:12:00+09:00,0.2,�É�,1,��쓌,12.7,78.3,0,0,0,0,0,0,1006.6,1020.6
2022-04-11T04:13:00+09:00,0.2,�É�,1,��쓌,12.9,80,0,0,0,0,0,0,1006.7,1020.7
2022-04-11T04:14:00+09:00,0.2,�É�,1,��쓌,13.8,84.7,0,0,0,0,0,0,1006.7,1020.7
2022-04-11T04:15:00+09:00,0.3,��쐼,1,��쓌,14.1,87.1,0,0,0,0,0,0,1006.7,1020.7
2022-04-11T04:16:00+09:00,0.3,��,1.1,��쓌,14.3,87.3,0,0,0,0,0,0,1006.7,1020.6
2022-04-11T04:17:00+09:00,0.3,��,1.1,��쓌,14.4,87.4,0,0,0,0,0,0,1006.7,1020.6
2022-04-11T04:18:00+09:00,0.4,��,1.7,��,14.5,86.9,0,0,0,0,0,0,1006.7,1020.6
2022-04-11T04:19:00+09:00,0.5,��,1.8,��쓌,14.6,86.6,0,0,0,0,0,0,1006.7,1020.6
2022-04-11T04:20:00+09:00,0.5,��,1.8,��쓌,14.4,85.1,0,0,0,0,0,0,1006.7,1020.6
2022-04-11T04:21:00+09:00,0.5,��,1.8,��쓌,13.9,82.5,0,0,0,0,0,0,1006.7,1020.7
2022-04-11T04:22:00+09:00,0.5,��,1.8,��쓌,13.6,81,0,0,0,0,0,0,1006.7,1020.7
2022-04-11T04:23:00+09:00,0.6,��,1.8,��쓌,14,82.1,0,0,0,0,0,0,1006.7,1020.7
2022-04-11T04:24:00+09:00,0.7,��,1.8,��쓌,14.3,85,0,0,0,0,0,0,1006.7,1020.6
2022-04-11T04:25:00+09:00,0.7,��,1.8,��쓌,14.1,85.7,0,0,0,0,0,0,1006.7,1020.7
2022-04-11T04:26:00+09:00,0.8,��,2.3,��,14.3,84.7,0,0,0,0,0,0,1006.7,1020.6
2022-04-11T04:27:00+09:00,0.8,��,2.3,��,14.4,86.1,0,0,0,0,0,0,1006.7,1020.6
2022-04-11T04:28:00+09:00,0.9,��,2.3,��,14.4,85.9,0,0,0,0,0,0,1006.7,1020.6
2022-04-11T04:29:00+09:00,1,��,2.3,��,14.1,85,0,0,0,0,0,0,1006.7,1020.7
2022-04-11T04:30:00+09:00,1.1,��,2.3,��,13.9,83.2,0,0,0,0,0,0,1006.7,1020.7
2022-04-11T04:31:00+09:00,1.2,��,2.3,��,14,84.5,0,0,0,0,0,0,1006.7,1020.7
2022-04-11T04:32:00+09:00,1.3,��,2.3,��,13.9,83.7,0,0,0,0,0,0,1006.7,1020.7
2022-04-11T04:33:00+09:00,1.3,��,2.3,��,14.1,84.5,0,0,0,0,0,0,1006.7,1020.7
2022-04-11T04:34:00+09:00,1.2,��쐼,2.3,��,13.6,84,0,0,0,0,0,0,1006.7,1020.7
2022-04-11T04:35:00+09:00,1.3,��쐼,2.3,��,13.5,82.1,0,0,0,0,0,0,1006.7,1020.7
2022-04-11T04:36:00+09:00,1.2,��쐼,2.1,��쐼,13.6,83.5,0,0,0,0,0,0,1006.7,1020.7
2022-04-11T04:37:00+09:00,1.2,��쐼,2.1,��쐼,13.6,84.5,0,0,0,0,0,0,1006.7,1020.7
2022-04-11T04:38:00+09:00,1.1,��,2.1,��쐼,13.5,83.8,0,0,0,0,0,0,1006.7,1020.7
2022-04-11T04:39:00+09:00,1,��쐼,2.1,��쐼,13.4,83.6,0,0,0,0,0,0,1006.7,1020.7
2022-04-11T04:40:00+09:00,0.9,��쐼,2.1,��쐼,12.7,81.7,0,0,0,0,0,0,1006.7,1020.7
2022-04-11T04:41:00+09:00,0.8,��쐼,2.1,��쐼,13,81.6,0,0,0,0,0,0,1006.7,1020.7
2022-04-11T04:42:00+09:00,0.8,��쐼,2.1,��쐼,13.4,85.5,0,0,0,0,0,0,1006.7,1020.7
2022-04-11T04:43:00+09:00,0.7,��,1.7,��,13.2,85.1,0,0,0,0,0,0,1006.7,1020.7
2022-04-11T04:44:00+09:00,0.7,��,1.7,��,13.6,85.6,0,0,0,0,0,0,1006.7,1020.7
2022-04-11T04:45:00+09:00,0.7,��,1.7,��,13.8,87.5,0,0,0,0,0,0,1006.7,1020.7
2022-04-11T04:46:00+09:00,0.6,��,1.7,��,13.1,83.3,0,0,0,0,0,0,1006.7,1020.7
2022-04-11T04:47:00+09:00,0.5,��,1.7,��,13.2,83.2,0,0,0,0,0,0,1006.7,1020.7
2022-04-11T04:48:00+09:00,0.5,��,1.4,��,13,82.6,0,0,0,0,0,0,1006.8,1020.8
2022-04-11T04:49:00+09:00,0.5,��,1.4,��,13.6,84.1,0,0,0,0,0,0,1006.8,1020.8
2022-04-11T04:50:00+09:00,0.6,��,1.4,��,13.6,85.3,0,0,0,0,0,0,1006.8,1020.8
2022-04-11T04:51:00+09:00,0.6,��,1.4,��,13.7,86.5,0,0,0,0,0,0,1006.8,1020.8
2022-04-11T04:52:00+09:00,0.6,��,1.4,��,13.8,85.1,0,0,0,0,0,0,1006.8,1020.8
2022-04-11T04:53:00+09:00,0.6,��,1.6,��,14.1,86,0,0,0,0,0,0,1006.8,1020.8
2022-04-11T04:54:00+09:00,0.6,��쐼,1.7,���k��,13.4,84.3,0,0,0,0,0,0,1006.9,1020.9
2022-04-11T04:55:00+09:00,0.7,��쐼,1.7,���k��,13.4,82.5,0,0,0,0,0,0,1006.9,1020.9
2022-04-11T04:56:00+09:00,0.7,�쐼,1.7,���k��,12.8,81.1,0,0,0,0,0,0,1006.9,1020.9
2022-04-11T04:57:00+09:00,0.7,�쐼,1.7,���k��,13.3,82.6,0,0,0,0,0,0,1006.9,1020.9
2022-04-11T04:58:00+09:00,0.7,�쐼,1.7,���k��,13.7,85.2,0,0,0,0,0,0,1006.9,1020.9
2022-04-11T04:59:00+09:00,0.6,�쐼,1.7,���k��,13.9,86.4,0,0,0,0,0,0,1006.9,1020.9
2022-04-11T05:00:00+09:00,0.6,�쐼,1.7,���k��,14,86.7,0,0,0,0,0,0,1006.9,1020.9
2022-04-11T05:01:00+09:00,0.6,�쐼,1.7,���k��,14,86.8,0,0,0,0,0,0,1006.9,1020.9
2022-04-11T05:02:00+09:00,0.6,���쐼,1.7,���k��,13.4,84.3,0,0,0,0,0,0,1006.9,1020.9
2022-04-11T05:03:00+09:00,0.6,���쐼,2,���k��,13.1,81.9,0,0,0,0,0,0,1006.9,1020.9
2022-04-11T05:04:00+09:00,0.7,���쐼,2.1,��,13.1,81.1,0,0,0,0,0,0,1006.9,1020.9
2022-04-11T05:05:00+09:00,0.7,���쐼,2.1,��,13,82.4,0,0,0,0,0,0,1006.9,1020.9
2022-04-11T05:06:00+09:00,0.7,���쐼,2.1,��,13.2,83.1,0,0,0,0,0,0,1006.9,1020.9
2022-04-11T05:07:00+09:00,0.7,���쐼,2.1,��,13.4,84.4,0,0,0,0,0,0,1006.9,1020.9
2022-04-11T05:08:00+09:00,0.8,���쐼,2.1,��,13.6,85.3,0,0,0,0,0,0,1006.9,1020.9